Flag for U.S.A. Weather past 2 weeks in South Bend, Indiana, U.S.A.

68 °F

Mostly cloudy.

Feels Like: 68 °F
Forecast: 47 / 62 °F
Wind: 10 mph from Southwest

Location: Michiana Regional Airport

Current Time: Oct 8, 2015 at 11:42:27 PM

Latest Report: Oct 8, 2015 at 10:54 PM

Visibility: 10 mi

Pressure: 29.88 "Hg

Humidity: 65%

Dew point: 56 °F

Location of South BendLocation

Historic Weather in South Bend — Graph


South Bend temperature yesterday

Maximum temperature yesterday: 73 °F (at 2:54 PM)
Minimum temperature yesterday: 47 °F (at 1:01 AM)
Average temperature yesterday: 57 °F

Past Weeks' High & Low Weather Summary

High78 °F (Sep 25, 4:54 PM)100% (Oct 3, 9:54 PM)30.33 "Hg (Oct 3, 9:54 PM)
Low41 °F (Oct 1, 5:54 AM)30% (Oct 2, 4:54 PM)29.88 "Hg (Oct 8, 6:54 PM)
Average60 °F76%30.16 "Hg
* Reported Sep 23 9:54 PM — Oct 8 9:54 PM, South Bend, Weather by CustomWeather, © 2015

Note: Actual official high and low records may vary slightly from our data, if they occured in-between our weather recording intervals... More about our weather records


South Bend weather history for previous 24 hours

Time TempWeatherWind HumidityBarometerVisibility
9:54 PM
Thu, Oct 8
69 °FPassing clouds.10 mph63%29.88 "Hg10 mi
8:54 PM70 °FPassing clouds.8 mph61%29.89 "Hg10 mi
7:54 PM72 °FMostly cloudy.10 mph55%29.88 "Hg10 mi
6:54 PM73 °FScattered clouds.9 mph51%29.88 "Hg10 mi
5:54 PM75 °FPartly sunny.10 mph48%29.90 "Hg10 mi
4:54 PM77 °FPassing clouds.16 mph47%29.91 "Hg10 mi
3:54 PM77 °FPassing clouds.13 mph48%29.92 "Hg10 mi
2:54 PM75 °FPassing clouds.12 mph54%29.94 "Hg10 mi
1:54 PM74 °FPassing clouds.10 mph56%29.97 "Hg10 mi
12:54 PM73 °FSunny.13 mph53%30.00 "Hg10 mi
11:54 AM69 °FPassing clouds.7 mph61%30.04 "Hg10 mi
10:54 AM63 °FMostly cloudy.7 mph73%30.08 "Hg10 mi
9:54 AM58 °FPartly sunny.6 mph81%30.09 "Hg10 mi
8:54 AM53 °FOvercast.5 mph89%30.10 "Hg10 mi
7:54 AM50 °FPassing clouds.5 mph93%30.09 "Hg10 mi
6:54 AM51 °FOvercast.3 mph89%30.09 "Hg10 mi
5:54 AM49 °FOvercast.No wind90%30.09 "Hg10 mi
4:54 AM47 °FClear.No wind93%30.10 "Hg10 mi
3:54 AM48 °FClear.No wind89%30.10 "Hg10 mi
2:54 AM48 °FClear.No wind86%30.13 "Hg10 mi
1:54 AM48 °FClear.3 mph86%30.14 "Hg10 mi
12:54 AM50 °FClear.No wind86%30.15 "Hg10 mi
11:54 PM
Wed, Oct 7
50 °FClear.No wind86%30.16 "Hg10 mi
Weather by CustomWeather, © 2015

See weather overviewHow to use our weather pages